Theta_e
300 300 301 301 302 302 303 303 303 303 303 303 304 304 304 304 304 305 304 305 306 311 313 317 328 329 335 336 332 333 333 332
299 299 300 301 302 302 301 301 300 300 300 299 299 300 301 301 302 303 303 303 304 308 313 316 328 323 326 334 334 334 334 332
298 299 300 300 300 300 301 300 299 298 297 296 296 296 296 296 296 301 301 302 303 304 308 313 322 327 324 332 337 337 333 333
297 298 299 300 300 300 299 298 297 296 295 295 295 296 295 294 294 296 299 301 302 303 306 309 318 324 327 320 333 334 336 334
296 297 299 299 299 298 297 296 295 294 293 292 290 290 292 293 293 295 297 299 301 302 304 307 313 320 325 325 327 329 334 333
296 295 296 298 298 296 295 293 294 294 292 291 291 291 292 293 295 296 297 298 299 302 303 307 310 313 324 319 325 325 331 331
295 295 296 296 297 296 293 294 294 292 291 290 289 290 291 292 295 297 298 298 300 302 304 305 309 312 315 322 318 320 326 331
295 294 294 295 295 293 295 293 293 292 291 289 290 290 289 291 293 295 298 300 300 302 306 307 307 311 311 316 320 321 322 325
292 293 294 293 291 294 296 294 293 292 290 289 288 289 289 290 293 295 297 298 302 303 305 307 308 310 310 310 312 321 321 321
291 292 293 293 290 293 293 293 293 291 290 289 287 289 289 290 294 294 296 300 305 307 308 309 310 312 310 309 309 310 316 320
290 291 292 291 290 291 291 291 293 292 291 288 287 287 289 291 293 295 296 300 305 307 310 311 315 315 309 309 310 311 313 323
289 290 290 290 290 289 289 290 291 294 292 290 288 288 288 290 290 291 293 297 303 303 308 311 312 318 315 311 313 314 313 318
289 289 289 289 289 289 287 287 289 291 293 292 290 290 289 289 290 290 293 294 296 298 301 310 311 313 315 316 317 316 318 319
289 289 289 288 288 287 287 286 286 288 290 293 293 291 292 291 291 292 292 292 293 293 295 300 303 308 313 317 316 318 321 320
288 288 288 288 287 286 286 285 285 286 287 289 292 291 293 293 293 294 293 292 289 291 290 293 297 300 305 308 308 310 312 314
288 288 288 287 287 286 286 285 285 285 286 286 285 286 289 292 296 295 295 296 295 292 290 291 293 296 298 302 302 303 305 308
288 288 287 287 286 286 285 285 284 284 284 284 284 284 285 286 287 289 294 295 293 296 296 293 291 292 296 300 298 301 303 304
288 287 287 286 285 285 285 284 284 283 283 283 283 283 283 283 283 284 284 285 288 290 293 295 294 291 293 296 297 297 296 298
287 287 286 286 285 285 284 284 283 283 282 282 282 282 282 282 283 283 283 283 284 284 286 288 288 288 288 290 292 294 296 295
Wind_Speed
24 26 28 30 32 34 36 36 37 38 38 38 39 39 39 38 36 39 37 37 37 40 39 36 36 38 47 46 45 44 44 43
25 28 30 32 34 36 37 38 37 38 39 42 42 42 42 42 38 34 35 32 35 40 39 36 31 44 47 47 47 45 44 44
27 29 32 34 37 37 38 38 38 38 40 41 40 42 43 43 42 34 34 28 30 38 38 38 34 35 48 47 49 43 44 45
30 33 35 36 38 39 39 38 38 38 39 41 42 43 43 41 39 38 33 29 28 33 38 36 31 28 35 50 43 48 42 43
27 31 34 36 37 37 37 37 38 39 39 40 40 40 41 41 40 38 33 32 30 33 37 36 32 25 30 39 38 63 47 41
27 29 32 33 35 35 35 35 38 39 39 37 36 35 35 36 36 36 33 35 31 30 31 34 31 20 26 31 40 44 57 46
23 26 29 31 33 34 33 37 38 39 39 36 34 33 33 33 33 33 31 31 32 28 26 30 29 22 17 32 33 49 35 44
23 25 30 32 34 33 35 36 39 38 38 36 35 33 31 29 29 29 33 32 28 28 25 22 23 21 19 17 30 39 50 40
20 22 26 29 30 32 34 35 37 38 36 35 35 33 30 28 27 28 30 32 28 25 23 22 19 20 19 19 19 26 43 27
19 21 23 26 28 31 32 33 34 35 35 34 34 33 29 28 26 26 25 24 24 19 13 13 17 20 20 18 20 21 33 45
17 20 22 22 26 29 30 31 33 34 34 33 32 33 30 25 21 21 19 17 17 9 14 16 17 21 21 21 21 25 27 43
14 18 19 21 24 28 30 31 32 33 35 36 35 35 34 26 22 22 19 12 6 5 9 14 14 17 21 23 23 23 27 32
12 15 18 22 23 27 30 31 33 33 34 38 39 37 38 33 30 28 23 21 15 9 9 8 12 13 19 19 26 28 29 33
10 13 19 21 23 25 28 31 33 34 35 37 39 41 43 41 37 33 31 34 33 31 29 24 21 19 11 13 16 23 26 31
9 13 17 19 22 23 25 29 31 31 33 34 36 40 41 43 42 40 40 37 43 41 44 41 38 33 33 31 28 24 21 18
7 12 15 18 20 21 23 26 29 30 31 33 36 37 36 38 38 40 40 42 41 45 46 49 46 45 40 36 33 36 36 35
5 9 13 16 18 20 21 24 27 29 31 33 33 35 36 37 39 39 35 36 40 42 44 44 46 46 39 36 35 38 38 36
5 8 11 13 16 17 19 21 23 27 30 31 32 33 35 37 37 38 40 40 37 39 38 38 42 43 39 35 34 35 36 35
4 4 6 9 11 13 15 18 22 25 28 29 30 31 33 33 35 37 38 39 40 40 41 39 38 38 37 33 31 29 30 32
Wind_Direction
1 357 354 350 346 341 338 335 331 326 323 320 315 312 308 302 297 289 283 267 250 243 245 240 246 249 245 233 230 232 235 233
3 0 357 352 348 346 346 343 340 336 333 333 329 324 318 313 307 298 290 274 257 244 244 246 238 240 247 233 230 225 230 232
3 2 0 358 355 351 349 346 343 343 340 335 330 327 324 320 315 307 296 282 263 249 246 244 236 249 252 243 224 220 227 229
3 4 4 0 358 356 353 349 347 345 340 335 331 329 326 324 320 312 299 289 267 253 246 246 247 234 236 235 228 229 218 223
7 5 6 3 0 357 356 353 350 348 344 340 337 332 324 327 321 317 308 297 279 259 247 244 248 238 238 234 237 228 224 214
9 8 7 6 3 1 358 355 354 351 346 342 336 331 323 322 319 314 313 308 294 276 257 246 245 247 234 237 232 221 231 228
11 11 9 8 6 4 2 2 359 355 351 348 342 333 326 322 322 315 308 304 301 291 271 249 240 237 232 233 245 239 234 237
10 9 12 9 9 5 8 5 4 360 355 350 351 342 334 323 323 320 311 304 296 288 285 261 236 233 233 239 235 236 225 246
13 15 15 10 7 9 8 9 8 4 359 356 352 347 344 340 333 324 314 304 292 285 276 257 227 213 229 235 254 239 229 241
16 19 19 13 11 16 10 12 14 11 6 6 2 358 354 351 339 333 322 306 294 283 268 256 219 207 215 229 238 249 239 223
20 22 22 17 18 20 17 16 19 17 14 17 14 12 2 2 348 339 335 312 291 280 257 239 231 218 222 227 241 225 229 224
23 26 24 22 22 24 21 21 22 22 23 28 27 28 22 14 24 29 26 12 321 294 233 224 230 225 222 221 232 225 229 222
28 26 25 25 25 27 24 26 28 27 28 32 36 35 37 31 33 40 52 53 59 55 76 211 230 248 251 235 228 211 213 216
28 28 32 28 27 30 28 27 31 30 30 32 33 41 42 44 45 46 54 63 65 67 72 89 106 107 139 194 198 192 197 198
29 33 35 31 29 29 31 31 33 34 35 35 37 34 42 46 47 53 56 55 60 65 65 75 81 86 93 105 110 126 134 148
27 35 37 34 32 30 33 36 34 36 40 40 40 44 45 48 48 50 51 61 57 52 64 70 72 78 80 84 82 90 94 94
48 39 40 37 33 31 32 36 39 40 42 44 44 43 46 47 52 55 54 48 55 59 57 54 62 65 69 74 79 82 77 80
61 41 42 38 34 31 34 37 41 43 45 45 46 48 48 48 50 51 54 55 58 61 61 61 52 54 61 61 62 70 77 83
74 40 40 37 34 33 34 41 43 43 46 47 47 47 49 49 49 52 50 51 52 49 53 55 57 51 50 53 58 61 65 66